Location: Calgary
(51.0833°N, 114.0833°W)
Time: 22:13:32
(UTC-07:00)

Amateur Radio Satellites - All Passes

Search period start: 16 January 2018 21:43
Search period end: 17 January 2018 21:43
Location: Calgary, 51.0833°N, 114.0833°W

Satellite Date Start Highest point End Downlink Frequencies (MHz)
Time Altitude Azimuth
ESTCUBE 1 16 Jan 21:50:36 21:53:57 21° 59° (ENE) 21:57:18 437.505/2401.250
NO-84 16 Jan 22:06:07 22:08:46 36° 354° (N) 22:11:26 435.350 FM
BEESAT 2 16 Jan 22:06:18 22:07:49 12° 250° (WSW) 22:09:17 435.950
DELFI C3 16 Jan 22:09:31 22:12:42 23° 267° (W) 22:15:53 145.870
Max Valier Satellite 16 Jan 22:12:49 22:16:05 28° 265° (W) 22:19:23 145.860
YUBILEINY 16 Jan 22:15:50 22:21:37 20° 73° (ENE) 22:27:23 435.215
AO-85 16 Jan 22:29:32 22:34:08 43° 238° (WSW) 22:39:00 145.980
TIGRISAT 16 Jan 22:31:08 22:35:49 71° 102° (ESE) 22:40:31 435.000
ISS 16 Jan 22:32:05 22:33:03 11° 137° (SE) 22:34:00 437.550
nSIGHT-1 16 Jan 22:36:37 22:38:34 15° 141° (SE) 22:40:32 .
LO-87 16 Jan 22:43:10 22:46:41 64° 73° (ENE) 22:50:15 145.935 - 145.965
EO-88 16 Jan 22:43:31 22:46:15 20° 268° (W) 22:48:59 145.990 - 145.960
SPROUT 16 Jan 22:44:38 22:47:27 18° 59° (ENE) 22:50:18 437.525
UNISAT 6 16 Jan 22:45:10 22:49:51 82° 286° (WNW) 22:54:34 437.425
PRISM 16 Jan 22:48:04 22:51:34 27° 95° (E) 22:55:02 437.425
FO-29 16 Jan 23:10:31 23:13:29 15° 310° (NW) 23:16:21 435.910
ESTCUBE 1 16 Jan 23:25:52 23:30:22 61° 259° (WSW) 23:34:52 437.505/2401.250
EO-79 16 Jan 23:31:02 23:33:21 14° 88° (E) 23:35:39 145.935-145.965
DUCHIFAT 1 16 Jan 23:36:14 23:37:59 12° 87° (E) 23:39:43 145.980
NO-84 16 Jan 23:43:32 23:46:16 47° 15° (NNE) 23:49:05 435.350 FM
VELOX 1 16 Jan 23:46:13 23:50:16 38° 67° (ENE) 23:54:21 145.980
AIST 2D 17 Jan 00:03:40 00:07:11 90° 119° (ESE) 00:10:39 435.315
POLYITAN 1 17 Jan 00:03:44 00:07:27 28° 94° (E) 00:11:11 437.675
ISS 17 Jan 00:05:45 00:08:52 45° 155° (SSE) 00:12:01 437.550
YUBILEINY 17 Jan 00:08:09 00:16:57 77° 96° (E) 00:25:45 435.215
TIGRISAT 17 Jan 00:08:43 00:12:02 20° 301° (WNW) 00:15:21 435.000
nSIGHT-1 17 Jan 00:11:08 00:14:15 59° 160° (SSE) 00:17:23 .
UKube-1 17 Jan 00:17:11 00:19:20 14° 55° (NE) 00:21:30 .
DX 1 17 Jan 00:17:56 00:21:07 20° 59° (ENE) 00:24:18 434.975-435.025
SPROUT 17 Jan 00:18:40 00:22:53 67° 258° (WSW) 00:27:09 437.525
LO-87 17 Jan 00:19:04 00:20:30 12° 272° (W) 00:21:58 145.935 - 145.965
PRISM 17 Jan 00:23:11 00:26:53 34° 294° (WNW) 00:30:34 437.425
UNISAT 6 17 Jan 00:23:20 00:25:51 15° 305° (NW) 00:28:23 437.425
NANOSAT C BR1 17 Jan 00:23:39 00:27:40 38° 98° (E) 00:31:39 145.865
50 SAT 17 Jan 00:27:56 00:29:44 15° 62° (ENE) 00:31:32 437.505
QB50P2 17 Jan 00:32:42 00:36:57 59° 102° (ESE) 00:41:10 145.880/145.840
AO-91 17 Jan 00:52:36 00:54:35 13° 89° (E) 00:56:39 145.960
BUGSAT 1 17 Jan 00:54:42 00:57:46 19° 91° (E) 01:00:48 437.445
MOZHAYETS 4 17 Jan 01:00:59 01:02:56 13° 53° (NE) 01:04:55
Oscar 19 17 Jan 01:02:35 01:05:55 17° 88° (E) 01:09:14 437.125/150
EO-79 17 Jan 01:05:20 01:09:38 75° 286° (WNW) 01:13:54 145.935-145.965
DUCHIFAT 1 17 Jan 01:09:58 01:14:15 86° 283° (WNW) 01:18:30 145.980
NO-84 17 Jan 01:20:42 01:23:24 39° 214° (SW) 01:26:12 435.350 FM
VELOX 1 17 Jan 01:22:59 01:26:48 28° 265° (W) 01:30:37 145.980
ITUPSAT 1 17 Jan 01:23:49 01:26:13 14° 52° (NE) 01:28:37 437.325
POLYITAN 1 17 Jan 01:39:21 01:43:19 37° 293° (WNW) 01:47:15 437.675
ISS 17 Jan 01:41:59 01:45:16 81° 354° (N) 01:48:33 437.550
nSIGHT-1 17 Jan 01:47:14 01:50:25 78° 1° (N) 01:53:36 .
O/OREOS (USA 219) 17 Jan 01:49:06 01:53:24 46° 111° (ESE) 01:57:43 437.305
UKube-1 17 Jan 01:50:24 01:54:42 87° 73° (ENE) 01:59:02 .
Gurwin Techsat 1B 17 Jan 01:50:46 01:55:32 32° 95° (E) 02:00:16 435.225
DX 1 17 Jan 01:52:40 01:56:56 58° 258° (WSW) 02:01:13 434.975-435.025
50 SAT 17 Jan 01:58:13 02:01:09 41° 260° (W) 02:04:08 437.505
NANOSAT C BR1 17 Jan 01:59:36 02:03:14 27° 296° (WNW) 02:06:51 145.865
BEESAT 17 Jan 02:04:34 02:08:35 28° 61° (ENE) 02:12:37 436.000
YUBILEINY 17 Jan 02:07:03 02:14:42 32° 300° (WNW) 02:22:23 435.215
QB50P2 17 Jan 02:09:15 02:12:21 20° 300° (WNW) 02:15:27 145.880/145.840
CUBESAT XI-V 17 Jan 02:27:14 02:30:42 21° 59° (ENE) 02:34:10 437.345
AO-91 17 Jan 02:27:21 02:31:28 83° 285° (WNW) 02:36:02 145.960
BUGSAT 1 17 Jan 02:29:17 02:33:25 54° 290° (WNW) 02:37:33 437.445
MOZHAYETS 4 17 Jan 02:34:40 02:39:16 70° 73° (ENE) 02:43:56
Oscar 19 17 Jan 02:40:41 02:45:54 82° 288° (WNW) 02:51:04 437.125/150
EO-79 17 Jan 02:43:01 02:44:39 12° 306° (NW) 02:46:16 145.935-145.965
DUCHIFAT 1 17 Jan 02:47:12 02:49:14 13° 305° (NW) 02:51:18 145.980
ITUPSAT 1 17 Jan 02:58:29 03:03:14 74° 71° (ENE) 03:08:03 437.325
ISS 17 Jan 03:18:30 03:21:47 79° 194° (SSW) 03:25:04 437.550
nSIGHT-1 17 Jan 03:23:26 03:26:36 63° 199° (SSW) 03:29:44 .
O/OREOS (USA 219) 17 Jan 03:29:06 03:33:01 28° 311° (NW) 03:36:56 437.305
UKube-1 17 Jan 03:29:34 03:31:21 12° 273° (W) 03:33:07 .
AO-7 17 Jan 03:29:56 03:37:36 38° 96° (E) 03:45:12 .
Gurwin Techsat 1B 17 Jan 03:30:35 03:35:38 45° 294° (WNW) 03:40:40 435.225
ITAMSAT 1 17 Jan 03:37:36 03:41:46 24° 92° (E) 03:45:54 435.822/435.867
BEESAT 17 Jan 03:41:33 03:46:09 47° 260° (W) 03:50:46 436.000
CUBESAT XI-V 17 Jan 04:02:59 04:07:39 65° 259° (WSW) 04:12:20 437.345
AO-91 17 Jan 04:05:42 04:07:26 12° 302° (WNW) 04:09:14 145.960
MOZHAYETS 4 17 Jan 04:13:54 04:16:56 17° 271° (W) 04:19:58
Oscar 19 17 Jan 04:21:17 04:24:28 17° 307° (NW) 04:27:39 437.125/150
KKS-1 17 Jan 04:35:50 04:40:09 54° 69° (ENE) 04:44:28 437.445
ITUPSAT 1 17 Jan 04:38:31 04:41:37 17° 271° (W) 04:44:44 437.325
ISS 17 Jan 04:55:13 04:57:58 25° 213° (SSW) 05:00:42 437.550
nSIGHT-1 17 Jan 05:00:08 05:02:20 17° 218° (SW) 05:04:31 .
STARS 17 Jan 05:04:30 05:08:38 44° 68° (ENE) 05:12:48 437.465
M-CUBED/EXP-1 PRIME 17 Jan 05:05:09 05:08:01 23° 100° (E) 05:10:44 437.505
ITAMSAT 1 17 Jan 05:16:30 05:21:37 60° 291° (WNW) 05:26:43 435.822/435.867
STRAND 1 17 Jan 05:17:27 05:20:17 15° 52° (NE) 05:23:07 437.568
AO-7 17 Jan 05:22:35 05:30:51 65° 298° (WNW) 05:39:03 .
DOVE 4 17 Jan 05:28:14 05:32:26 64° 102° (ESE) 05:36:48 437.250
XW-2F 17 Jan 05:34:10 05:35:06 11° 87° (E) 05:36:01 145.980 - 146.000
XW-2D 17 Jan 05:39:05 05:41:06 14° 89° (E) 05:43:04 145.860 - 145.880
XW-2B 17 Jan 05:55:54 05:58:42 19° 92° (E) 06:01:29 145.730 - 145.750
FO-29 17 Jan 05:57:40 06:02:14 20° 54° (NE) 06:06:29 435.910
NUDT-PHONESAT 17 Jan 05:58:13 06:00:17 14° 89° (E) 06:02:19 437.300
SO-50 17 Jan 06:04:23 06:06:35 14° 110° (ESE) 06:08:49 436.795
HO-68 17 Jan 06:07:34 06:12:01 17° 85° (E) 06:16:27 435.675
KKS-1 17 Jan 06:13:43 06:17:01 20° 268° (W) 06:20:21 437.445
LilacSat-2 17 Jan 06:17:37 06:21:09 35° 97° (E) 06:24:39 437.200
CUTE-I 17 Jan 06:18:49 06:23:30 31° 94° (E) 06:28:10 437.470
XW-2C 17 Jan 06:25:24 06:28:59 39° 98° (E) 06:32:32 145.795 - 145.815
CUBEBUG 2 17 Jan 06:27:04 06:28:50 12° 84° (E) 06:30:35 437.445
M-CUBED/EXP-1 PRIME 17 Jan 06:39:21 06:42:30 30° 300° (WNW) 06:45:30 437.505
STARS 17 Jan 06:41:37 06:45:09 24° 266° (W) 06:48:45 437.465
STRAND 1 17 Jan 06:53:35 06:58:39 76° 72° (ENE) 07:03:46 437.568
SEEDS 17 Jan 06:54:35 06:57:22 17° 89° (E) 07:00:07 437.485
ITAMSAT 1 17 Jan 06:57:54 07:00:06 13° 311° (NW) 07:02:17 435.822/435.867
CUTE 1.7 + AOD 2 17 Jan 06:58:00 07:01:42 28° 94° (E) 07:05:21 437.475
XW-2F 17 Jan 07:05:58 07:09:44 79° 285° (WNW) 07:13:28 145.980 - 146.000
DOVE 4 17 Jan 07:06:55 07:09:46 18° 300° (WNW) 07:12:41 437.250
KAITUO 1B 17 Jan 07:11:48 07:15:32 87° 284° (WNW) 07:19:13 145.475/437.950
XW-2D 17 Jan 07:11:55 07:15:39 61° 287° (WNW) 07:19:21 145.860 - 145.880
ZACube-1 17 Jan 07:15:37 07:16:35 11° 83° (E) 07:17:33 437.345
AO-7 17 Jan 07:16:12 07:22:10 22° 322° (NW) 07:28:09 .
AO-73 17 Jan 07:24:34 07:26:08 12° 84° (E) 07:27:40 145.935
XW-2A 17 Jan 07:26:09 07:26:53 11° 88° (E) 07:27:37 145.665 - 145.685
XW-2B 17 Jan 07:29:29 07:33:04 41° 290° (WNW) 07:36:36 145.730 - 145.750
NUDT-PHONESAT 17 Jan 07:30:49 07:34:28 56° 288° (WNW) 07:38:03 437.300
FO-29 17 Jan 07:39:44 07:46:40 82° 71° (ENE) 07:52:46 435.910
SO-50 17 Jan 07:41:50 07:46:18 81° 130° (SE) 07:50:53 436.795
LilacSat-2 17 Jan 07:52:11 07:55:16 24° 296° (WNW) 07:58:19 437.200
HO-68 17 Jan 07:53:47 08:00:59 76° 106° (ESE) 08:08:08 435.675
CUTE-I 17 Jan 07:58:40 08:03:45 48° 294° (WNW) 08:08:50 437.470
TIGRISAT 17 Jan 07:59:53 08:02:46 17° 57° (ENE) 08:05:41 435.000
XW-2C 17 Jan 08:00:02 08:02:57 21° 297° (WNW) 08:05:51 145.795 - 145.815
CUBEBUG 2 17 Jan 08:01:26 08:06:12 79° 104° (ESE) 08:10:57 437.445
Oscar 11 17 Jan 08:01:40 08:04:22 16° 88° (E) 08:07:02 .
RS-15 17 Jan 08:11:36 08:21:44 32° 104° (ESE) 08:31:42 29.354- 29.394
UNISAT 6 17 Jan 08:13:13 08:16:43 23° 61° (ENE) 08:20:17 437.425
UWE-3 17 Jan 08:15:45 08:20:26 66° 101° (E) 08:25:04 435.000/436.395/437.385
YUBILEINY 17 Jan 08:16:22 08:21:04 15° 42° (NE) 08:25:45 435.215
AAUSAT CUBESAT 2 17 Jan 08:23:53 08:27:57 58° 100° (E) 08:31:59 437.432
SEEDS 17 Jan 08:29:19 08:33:25 58° 289° (WNW) 08:37:30 437.485
CUTE 1.7 + AOD 2 17 Jan 08:33:44 08:37:35 35° 293° (WNW) 08:41:24 437.475
STRAND 1 17 Jan 08:34:58 08:38:26 18° 271° (W) 08:41:53 437.568
XW-2F 17 Jan 08:42:53 08:43:08 10° 304° (NW) 08:43:24 145.980 - 146.000
KAITUO 1B 17 Jan 08:47:59 08:48:52 11° 303° (WNW) 08:49:45 145.475/437.950
ZACube-1 17 Jan 08:49:03 08:53:41 75° 104° (ESE) 08:58:13 437.345
XW-2A 17 Jan 08:56:37 09:00:00 65° 286° (WNW) 09:03:20 145.665 - 145.685
AO-73 17 Jan 08:58:30 09:03:06 82° 102° (ESE) 09:07:38 145.935
AO-7 17 Jan 09:10:38 09:11:52 10° 348° (NNW) 09:13:06 .
SO-50 17 Jan 09:23:26 09:27:17 26° 332° (NNW) 09:31:11 436.795
FO-29 17 Jan 09:27:12 09:32:18 22° 270° (W) 09:37:02 435.910
TIGRISAT 17 Jan 09:34:29 09:38:53 76° 258° (WSW) 09:43:26 435.000
Oscar 11 17 Jan 09:36:38 09:40:58 67° 287° (WNW) 09:45:15 .
Max Valier Satellite 17 Jan 09:37:27 09:40:10 19° 92° (E) 09:42:50 145.860
CUBEBUG 2 17 Jan 09:39:05 09:42:15 18° 302° (WNW) 09:45:25 437.445
DELFI C3 17 Jan 09:40:11 09:43:38 29° 95° (E) 09:47:05 145.870
CUTE-I 17 Jan 09:41:33 09:42:36 11° 314° (NW) 09:43:40 437.470
PRISM 17 Jan 09:41:40 09:45:27 38° 67° (ENE) 09:49:14 437.425
HO-68 17 Jan 09:42:09 09:48:10 30° 307° (NW) 09:54:10 435.675
UNISAT 6 17 Jan 09:48:49 09:53:07 51° 261° (W) 09:57:33 437.425
UWE-3 17 Jan 09:53:00 09:56:27 21° 300° (WNW) 09:59:53 435.000/436.395/437.385
QB50P2 17 Jan 09:56:54 09:58:49 13° 55° (NE) 10:00:45 145.880/145.840
AAUSAT CUBESAT 2 17 Jan 10:00:11 10:03:01 18° 300° (WNW) 10:05:51 437.432
EO-88 17 Jan 10:05:56 10:08:59 25° 94° (E) 10:12:00 145.990 - 145.960
YUBILEINY 17 Jan 10:12:02 10:20:32 51° 70° (ENE) 10:28:56 435.215
O/OREOS (USA 219) 17 Jan 10:14:45 10:18:52 34° 52° (NE) 10:22:56 437.305
RS-15 17 Jan 10:20:25 10:32:49 87° 127° (SE) 10:44:55 29.354- 29.394
ZACube-1 17 Jan 10:26:20 10:29:24 18° 302° (WNW) 10:32:28 437.345
EO-79 17 Jan 10:27:48 10:30:59 21° 61° (ENE) 10:34:12 145.935-145.965
DUCHIFAT 1 17 Jan 10:32:11 10:35:06 19° 59° (ENE) 10:38:01 145.980
AO-73 17 Jan 10:35:52 10:38:44 17° 303° (WNW) 10:41:36 145.935
AIST 2D 17 Jan 10:41:59 10:45:30 69° 74° (ENE) 10:49:01 435.315
AO-7 17 Jan 10:58:40 11:00:56 11° 16° (NNE) 11:03:13 .
POLYITAN 1 17 Jan 11:00:41 11:04:39 40° 67° (ENE) 11:08:39 437.675
SO-50 17 Jan 11:06:27 11:09:13 15° 356° (N) 11:12:00 436.795
Max Valier Satellite 17 Jan 11:10:38 11:14:10 42° 290° (WNW) 11:17:40 145.860
ESTCUBE 1 17 Jan 11:13:41 11:17:00 20° 91° (E) 11:20:18 437.505/2401.250
DELFI C3 17 Jan 11:14:55 11:18:21 30° 294° (WNW) 11:21:46 145.870
Oscar 11 17 Jan 11:15:08 11:16:17 11° 307° (NW) 11:17:25 .
TIGRISAT 17 Jan 11:15:57 11:16:26 10° 277° (W) 11:16:54 435.000
PCSat 17 Jan 11:16:46 11:21:56 48° 118° (ESE) 11:27:08 145.827
PRISM 17 Jan 11:17:30 11:20:50 24° 266° (W) 11:24:11 437.425
NANOSAT C BR1 17 Jan 11:20:05 11:24:11 54° 71° (ENE) 11:28:20 145.865
BEESAT 3 17 Jan 11:21:11 11:24:57 43° 123° (ESE) 11:28:45 437.485
QB50P2 17 Jan 11:29:41 11:33:55 83° 75° (ENE) 11:38:13 145.880/145.840
LO-87 17 Jan 11:37:59 11:41:24 38° 98° (E) 11:44:48 145.935 - 145.965
EO-88 17 Jan 11:39:25 11:42:38 30° 293° (WNW) 11:45:50 145.990 - 145.960
Gurwin Techsat 1B 17 Jan 11:39:35 11:42:55 17° 53° (NE) 11:46:16 435.225
BUGSAT 1 17 Jan 11:48:57 11:52:19 26° 63° (ENE) 11:55:45 437.445
O/OREOS (USA 219) 17 Jan 11:54:11 11:58:18 36° 251° (WSW) 12:02:23 437.305
AO-91 17 Jan 11:55:31 11:57:31 15° 60° (ENE) 11:59:34 145.960
BEESAT 2 17 Jan 11:59:26 12:02:59 31° 120° (ESE) 12:06:36 435.950
SPROUT 17 Jan 12:00:03 12:02:33 15° 89° (E) 12:05:02 437.525
EO-79 17 Jan 12:02:18 12:06:25 52° 260° (W) 12:10:36 145.935-145.965
DUCHIFAT 1 17 Jan 12:06:11 12:10:20 62° 259° (WSW) 12:14:33 145.980
YUBILEINY 17 Jan 12:09:09 12:17:19 46° 273° (W) 12:25:25 435.215
AIST 2D 17 Jan 12:18:06 12:19:05 11° 272° (W) 12:20:05 435.315
Oscar 19 17 Jan 12:23:47 12:28:38 41° 65° (ENE) 12:33:31 437.125/150
RS-15 17 Jan 12:34:52 12:46:43 49° 338° (NNW) 12:58:10 29.354- 29.394
POLYITAN 1 17 Jan 12:37:01 12:40:33 25° 266° (W) 12:44:07 437.675
AO-7 17 Jan 12:44:22 12:50:51 26° 42° (NE) 12:57:21 .
SO-50 17 Jan 12:47:49 12:51:19 21° 21° (NNE) 12:54:52 436.795
ESTCUBE 1 17 Jan 12:49:44 12:54:09 56° 290° (WNW) 12:58:32 437.505/2401.250
AO-85 17 Jan 12:49:59 12:52:39 17° 112° (ESE) 12:55:27 145.980
NANOSAT C BR1 17 Jan 12:57:13 13:00:13 19° 269° (W) 13:03:14 145.865
BEESAT 3 17 Jan 12:58:57 13:02:36 33° 323° (NW) 13:06:14 437.485
PCSat 17 Jan 13:00:22 13:05:28 40° 319° (NW) 13:10:36 145.827
VELOX 1 17 Jan 13:06:55 13:10:59 36° 97° (E) 13:15:03 145.980
QB50P2 17 Jan 13:08:27 13:10:19 13° 273° (W) 13:12:10 145.880/145.840
LO-87 17 Jan 13:11:50 13:14:35 21° 296° (WNW) 13:17:20 145.935 - 145.965
Gurwin Techsat 1B 17 Jan 13:16:48 13:22:07 82° 71° (ENE) 13:27:28 435.225
BUGSAT 1 17 Jan 13:23:43 13:27:31 38° 262° (W) 13:31:24 437.445
ITAMSAT 1 17 Jan 13:24:43 13:26:53 13° 48° (NE) 13:29:05 435.822/435.867
AO-91 17 Jan 13:30:25 13:33:41 46° 261° (W) 13:37:02 145.960
SPROUT 17 Jan 13:34:37 13:38:55 71° 287° (WNW) 13:43:12 437.525
DX 1 17 Jan 13:36:24 13:39:13 17° 90° (E) 13:42:01 434.975-435.025
BEESAT 2 17 Jan 13:36:46 13:40:37 42° 320° (NW) 13:44:31 435.950
Oscar 19 17 Jan 14:03:19 14:08:02 35° 264° (W) 14:12:48 437.125/150
M-CUBED/EXP-1 PRIME 17 Jan 14:22:15 14:24:27 14° 51° (NE) 14:26:36 437.505
MOZHAYETS 4 17 Jan 14:26:31 14:28:09 12° 85° (E) 14:29:46
SO-50 17 Jan 14:28:02 14:32:40 59° 43° (NE) 14:37:21 436.795
AO-85 17 Jan 14:28:26 14:32:29 72° 314° (NW) 14:36:53 145.980
AO-7 17 Jan 14:34:09 14:42:28 77° 65° (ENE) 14:50:52 .
50 SAT 17 Jan 14:39:05 14:42:11 63° 101° (ESE) 14:45:16 437.505
BEESAT 3 17 Jan 14:39:15 14:41:14 13° 346° (NNW) 14:43:13 437.485
VELOX 1 17 Jan 14:43:31 14:47:22 30° 296° (WNW) 14:51:12 145.980
PCSat 17 Jan 14:46:47 14:50:21 17° 344° (NNW) 14:53:55 145.827
RS-15 17 Jan 14:50:55 15:02:23 44° 11° (N) 15:13:19 29.354- 29.394
ITUPSAT 1 17 Jan 14:55:23 14:57:36 13° 86° (E) 14:59:49 437.325
Gurwin Techsat 1B 17 Jan 14:59:15 15:02:43 17° 272° (W) 15:06:14 435.225
ITAMSAT 1 17 Jan 15:00:18 15:05:21 60° 69° (ENE) 15:10:28 435.822/435.867
DOVE 4 17 Jan 15:03:08 15:05:44 16° 59° (ENE) 15:08:18 437.250
UKube-1 17 Jan 15:07:58 15:12:17 77° 104° (ESE) 15:16:35 .
DX 1 17 Jan 15:11:32 15:15:50 65° 289° (WNW) 15:20:07 434.975-435.025
SPROUT 17 Jan 15:12:38 15:14:02 11° 306° (NW) 15:15:26 437.525
BEESAT 2 17 Jan 15:16:55 15:19:20 15° 342° (NNW) 15:21:44 435.950
BEESAT 17 Jan 15:36:19 15:40:32 30° 95° (E) 15:44:43 436.000
M-CUBED/EXP-1 PRIME 17 Jan 15:53:56 15:58:19 83° 69° (ENE) 16:02:25 437.505
CUBESAT XI-V 17 Jan 15:54:46 15:58:24 22° 91° (E) 16:01:58 437.345
MOZHAYETS 4 17 Jan 16:01:23 16:06:05 81° 105° (ESE) 16:10:42
CUTE-I 17 Jan 16:08:22 16:11:36 17° 52° (NE) 16:14:51 437.470
SO-50 17 Jan 16:08:56 16:12:52 27° 243° (WSW) 16:16:51 436.795
AO-85 17 Jan 16:10:24 16:13:41 21° 337° (NNW) 16:17:09 145.980
50 SAT 17 Jan 16:12:35 16:13:28 11° 301° (WNW) 16:14:20 437.505
BEESAT 3 17 Jan 16:18:41 16:20:23 12° 10° (N) 16:22:03 437.485
XW-2F 17 Jan 16:19:26 16:21:10 13° 58° (ENE) 16:22:53 145.980 - 146.000
KAITUO 1B 17 Jan 16:25:01 16:26:15 11° 57° (ENE) 16:27:29 145.475/437.950
XW-2D 17 Jan 16:25:01 16:27:22 16° 60° (ENE) 16:29:43 145.860 - 145.880
AO-7 17 Jan 16:28:55 16:36:02 30° 267° (W) 16:43:13 .
ITUPSAT 1 17 Jan 16:31:19 16:36:10 85° 107° (ESE) 16:41:00 437.325
PCSat 17 Jan 16:32:41 16:35:57 16° 10° (N) 16:39:11 145.827
DOVE 4 17 Jan 16:38:41 16:43:00 71° 257° (WSW) 16:47:11 437.250
ITAMSAT 1 17 Jan 16:41:08 16:45:14 23° 268° (W) 16:49:21 435.822/435.867
XW-2B 17 Jan 16:41:45 16:44:42 21° 63° (ENE) 16:47:39 145.730 - 145.750
HO-68 17 Jan 16:41:54 16:47:31 26° 50° (NE) 16:53:08 435.675
NUDT-PHONESAT 17 Jan 16:41:56 16:44:11 15° 60° (ENE) 16:46:25 437.300
UKube-1 17 Jan 16:45:07 16:47:47 16° 303° (WNW) 16:50:27 .
DX 1 17 Jan 16:50:07 16:51:11 11° 308° (NW) 16:52:16 434.975-435.025
BEESAT 2 17 Jan 16:57:00 16:58:39 12° 6° (N) 17:00:17 435.950
LilacSat-2 17 Jan 17:03:55 17:07:30 37° 69° (ENE) 17:11:05 437.200
RS-15 17 Jan 17:04:59 17:17:00 74° 42° (NE) 17:28:18 29.354- 29.394
XW-2C 17 Jan 17:11:00 17:14:36 41° 70° (ENE) 17:18:15 145.795 - 145.815
BEESAT 17 Jan 17:13:55 17:18:26 42° 294° (WNW) 17:22:56 436.000
CUBEBUG 2 17 Jan 17:29:31 17:32:28 18° 58° (ENE) 17:35:29 437.445
M-CUBED/EXP-1 PRIME 17 Jan 17:30:55 17:33:07 14° 265° (W) 17:35:14 437.505
CUBESAT XI-V 17 Jan 17:31:33 17:36:04 53° 290° (WNW) 17:40:32 437.345
MOZHAYETS 4 17 Jan 17:39:40 17:42:39 17° 303° (WNW) 17:45:37
UWE-3 17 Jan 17:43:18 17:45:52 15° 56° (NE) 17:48:27 435.000/436.395/437.385
CUTE-I 17 Jan 17:45:34 17:50:53 79° 73° (ENE) 17:56:13 437.470
AAUSAT CUBESAT 2 17 Jan 17:46:34 17:47:41 11° 55° (NE) 17:48:48 437.432
SEEDS 17 Jan 17:50:42 17:54:04 24° 63° (ENE) 17:57:26 437.485
XW-2F 17 Jan 17:50:53 17:54:42 81° 257° (WSW) 17:58:32 145.980 - 146.000
AO-85 17 Jan 17:53:09 17:55:44 15° 2° (N) 17:58:25 145.980
CUTE 1.7 + AOD 2 17 Jan 17:55:05 17:59:02 38° 68° (ENE) 18:03:01 437.475
BEESAT 3 17 Jan 17:55:45 17:59:10 27° 33° (NNE) 18:02:31 437.485
KAITUO 1B 17 Jan 17:55:50 17:59:36 90° 81° (E) 18:03:24 145.475/437.950
XW-2D 17 Jan 17:57:19 18:01:07 62° 258° (WSW) 18:04:56 145.860 - 145.880
KKS-1 17 Jan 17:57:46 18:02:07 52° 101° (E) 18:06:28 437.445
ITUPSAT 1 17 Jan 18:10:16 18:13:24 17° 305° (NW) 18:16:31 437.325
NUDT-PHONESAT 17 Jan 18:13:54 18:17:35 60° 259° (W) 18:21:19 437.300
XW-2B 17 Jan 18:14:59 18:18:39 41° 262° (W) 18:22:18 145.730 - 145.750
ZACube-1 17 Jan 18:15:08 18:17:58 17° 57° (ENE) 18:20:51 437.345
PCSat 17 Jan 18:16:14 18:21:04 31° 35° (NE) 18:25:53 145.827
NO-84 17 Jan 18:17:33 18:18:09 10° 133° (SE) 18:18:43 435.350 FM
AO-73 17 Jan 18:24:05 18:27:04 18° 58° (ENE) 18:30:05 145.935
STARS 17 Jan 18:24:31 18:28:42 41° 99° (E) 18:32:51 437.465
HO-68 17 Jan 18:27:17 18:34:27 90° 80° (E) 18:41:40 435.675
BEESAT 2 17 Jan 18:34:28 18:37:45 23° 30° (NNE) 18:40:59 435.950
LilacSat-2 17 Jan 18:38:46 18:41:52 23° 267° (W) 18:44:59 437.200
XW-2C 17 Jan 18:46:02 18:48:57 21° 268° (W) 18:51:53 145.795 - 145.815
STRAND 1 17 Jan 18:59:44 19:03:10 18° 89° (E) 19:06:34 437.568
Oscar 11 17 Jan 19:00:54 19:04:23 24° 62° (ENE) 19:07:52 .
CUBEBUG 2 17 Jan 19:04:12 19:08:32 72° 257° (WSW) 19:13:05 437.445
UWE-3 17 Jan 19:17:13 19:21:38 89° 256° (WSW) 19:26:13 435.000/436.395/437.385
RS-15 17 Jan 19:18:04 19:28:46 44° 249° (WSW) 19:38:59 29.354- 29.394
AAUSAT CUBESAT 2 17 Jan 19:18:16 19:22:23 73° 75° (ENE) 19:26:31 437.432
SEEDS 17 Jan 19:25:29 19:29:32 45° 262° (W) 19:33:36 437.485
CUTE-I 17 Jan 19:27:58 19:31:34 18° 272° (W) 19:35:11 437.470
CUTE 1.7 + AOD 2 17 Jan 19:31:21 19:34:59 26° 267° (W) 19:38:37 437.475
XW-2A 17 Jan 19:31:42 19:35:09 89° 347° (NNW) 19:38:35 145.665 - 145.685
BEESAT 3 17 Jan 19:33:05 19:36:57 57° 234° (SW) 19:40:45 437.485
AO-85 17 Jan 19:33:54 19:37:42 24° 26° (NNE) 19:41:44 145.980
KKS-1 17 Jan 19:34:54 19:38:24 23° 299° (WNW) 19:41:53 437.445
ZACube-1 17 Jan 19:49:13 19:53:39 79° 255° (WSW) 19:58:14 437.345
NO-84 17 Jan 19:51:55 19:54:48 63° 151° (SSE) 19:57:36 435.350 FM
AO-73 17 Jan 19:58:20 20:02:46 73° 259° (WSW) 20:07:19 145.935
PCSat 17 Jan 19:59:31 20:04:56 70° 237° (WSW) 20:10:19 145.827
STARS 17 Jan 20:01:08 20:04:53 28° 297° (WNW) 20:08:37 437.465
BEESAT 2 17 Jan 20:11:52 20:15:55 80° 230° (SW) 20:19:53 435.950
HO-68 17 Jan 20:17:53 20:23:09 22° 272° (W) 20:28:27 435.675
Max Valier Satellite 17 Jan 20:20:58 20:23:41 19° 63° (ENE) 20:26:24 145.860
FO-29 17 Jan 20:28:57 20:33:58 41° 97° (E) 20:38:51 435.910
DELFI C3 17 Jan 20:29:51 20:33:23 34° 68° (ENE) 20:36:56 145.870
Oscar 11 17 Jan 20:36:04 20:40:17 47° 261° (W) 20:44:31 .
STRAND 1 17 Jan 20:37:48 20:42:57 78° 288° (WNW) 20:48:05 437.568
EO-88 17 Jan 20:48:05 20:51:05 24° 65° (ENE) 20:54:05 145.990 - 145.960
AAUSAT CUBESAT 2 17 Jan 20:56:12 20:58:20 14° 272° (W) 21:00:28 437.432
UWE-3 17 Jan 20:56:59 20:58:49 12° 275° (W) 21:00:40 435.000/436.395/437.385
AO-85 17 Jan 21:14:01 21:18:50 77° 48° (NE) 21:23:59 145.980
TIGRISAT 17 Jan 21:21:25 21:24:36 18° 89° (E) 21:27:45 435.000
NO-84 17 Jan 21:29:21 21:32:04 39° 350° (N) 21:34:45 435.350 FM
ZACube-1 17 Jan 21:29:34 21:30:44 11° 276° (W) 21:31:54 437.345
YUBILEINY 17 Jan 21:31:50 21:33:13 10° 64° (ENE) 21:34:37 435.215
UNISAT 6 17 Jan 21:35:15 21:39:07 25° 92° (E) 21:42:59 437.425
